Fryeburg, ME

10:40 PM EST on February 22, 2017 (GMT -0500)
Eastern Slopes Regional

Weather History for KIZG - October, 2012

Change the Weather History Date:

Saturday, October 6, 2012

  Actual Average Record
Temperature  
Mean Temperature 60 °F -  
Max Temperature 75 °F 61 °F 81 °F (1997)
Min Temperature 44 °F 34 °F 21 °F (2004)
Degree Days  
Heating Degree Days 4    
Growing Degree Days 10 (Base 50)    
Moisture  
Dew Point 53 °F    
Average Humidity 83    
Maximum Humidity 100    
Minimum Humidity 59    
Precipitation  
Precipitation 0.02 in - - ()
Sea Level Pressure  
Sea Level Pressure 29.78 in    
Wind  
Wind Speed 2 mph (WSW)    
Max Wind Speed 12 mph    
Max Gust Speed 26 mph    
Visibility 7 miles    
Events      
Averages and records for this station are not official NWS values.
T = Trace of Precipitation, MM = Missing Value Source: NWS Daily Summary

Daily Weather History Graph

Daily Weather History Graph

Search for Another Location

Airport or City:

Trip Planner

Search our weather history database for the weather conditions in past years. The results will help you decide how hot, cold, wet, or windy it might be!

Date:

Astronomy

Oct. 06, 2012 Rise Set
Actual Time 6:47 AM EDT 6:14 PM EDT
Civil Twilight 6:19 AM EDT 6:43 PM EDT
Nautical Twilight 5:45 AM EDT 7:16 PM EDT
Astronomical Twilight 5:12 AM EDT 7:50 PM EDT
Moon 10:18 PM EDT (10/6) 12:49 PM EDT (10/6)
Length of Visible Light 12h 24m
Length of Day
11h 26m
Waning Gibbous, 65% of the Moon is Illuminated
Oct 6
Waning Gibbous
Oct 8
Last Quarter
Oct 15
New
Oct 21
First Quarter
Oct 29
Full

Hourly Weather History & Observations

Time (EDT) Temp. Dew Point Humidity Pressure Visibility Wind Dir Wind Speed Gust Speed Precip Events Conditions
12:54 AM 59.0 °F 57.0 °F 93% 29.87 in 10.0 mi Calm Calm - N/A   Mostly Cloudy
1:54 AM 61.0 °F 57.0 °F 87% 29.86 in 10.0 mi Calm Calm - 0.00 in   Mostly Cloudy
2:54 AM 57.9 °F 57.0 °F 97% 29.85 in 10.0 mi Calm Calm - 0.00 in   Mostly Cloudy
3:54 AM 57.0 °F 55.9 °F 96% 29.83 in 6.0 mi Calm Calm - N/A   Mostly Cloudy
4:54 AM 55.9 °F 55.9 °F 100% 29.82 in 6.0 mi Calm Calm - N/A   Overcast
5:54 AM 55.0 °F 55.0 °F 100% 29.81 in 3.0 mi Calm Calm - 0.00 in   Partly Cloudy
6:14 AM 53.6 °F 53.6 °F 100% 29.81 in 2.5 mi Calm Calm - N/A   Clear
6:22 AM 53.6 °F 53.6 °F 100% 29.80 in 1.8 mi Calm Calm - N/A   Clear
6:39 AM 53.6 °F 53.6 °F 100% 29.80 in 3.0 mi Calm Calm - N/A   Clear
6:54 AM 54.0 °F 53.1 °F 97% 29.81 in 2.0 mi Calm Calm - N/A   Clear
6:58 AM 53.6 °F 53.6 °F 100% 29.80 in 1.2 mi Calm Calm - N/A   Clear
7:07 AM 53.6 °F 51.8 °F 94% 29.80 in 0.8 mi Calm Calm - 0.01 in   Clear
7:11 AM 53.6 °F 53.6 °F 100% 29.80 in 1.5 mi Calm Calm - 0.01 in   Clear
7:19 AM 53.6 °F 53.6 °F 100% 29.80 in 2.5 mi Calm Calm - 0.01 in   Clear
7:45 AM 55.4 °F 55.4 °F 100% 29.80 in 4.0 mi Calm Calm - 0.01 in   Clear
7:54 AM 57.0 °F 55.0 °F 93% 29.79 in 7.0 mi Calm Calm - 0.01 in   Clear
8:54 AM 62.1 °F 57.9 °F 86% 29.78 in 10.0 mi Calm Calm - N/A   Clear
9:54 AM 68.0 °F 60.1 °F 76% 29.77 in 10.0 mi SW 3.5 mph - 0.00 in   Clear
10:54 AM 70.0 °F 57.9 °F 65% 29.74 in 10.0 mi SSW 8.1 mph - 0.00 in   Clear
11:54 AM 73.0 °F 57.9 °F 59% 29.71 in 10.0 mi SSW 9.2 mph - N/A   Clear
12:54 PM 72.0 °F 57.0 °F 59% 29.70 in 10.0 mi South 8.1 mph 24.2 mph N/A   Scattered Clouds
1:54 PM 72.0 °F 57.0 °F 59% 29.66 in 10.0 mi South 5.8 mph - N/A   Mostly Cloudy
2:54 PM 72.0 °F 57.9 °F 61% 29.65 in 10.0 mi South 9.2 mph - N/A   Overcast
3:54 PM 66.9 °F 60.1 °F 79% 29.65 in 10.0 mi WSW 5.8 mph - 0.01 in   Mostly Cloudy
4:54 PM 60.1 °F 53.1 °F 78% 29.70 in 10.0 mi West 11.5 mph 26.5 mph 0.00 in   Overcast
5:54 PM 57.9 °F 46.9 °F 67% 29.74 in 10.0 mi West 10.4 mph 18.4 mph 0.00 in   Mostly Cloudy
6:54 PM 57.0 °F 45.0 °F 64% 29.77 in 10.0 mi WNW 9.2 mph - 0.00 in   Overcast
7:54 PM 55.0 °F 43.0 °F 64% 29.79 in 10.0 mi NW 9.2 mph 19.6 mph N/A   Clear
8:54 PM 53.1 °F 42.1 °F 66% 29.82 in 10.0 mi West 5.8 mph - N/A   Clear
9:54 PM 53.1 °F 39.9 °F 61% 29.84 in 10.0 mi Variable 5.8 mph - N/A   Clear
10:54 PM 48.9 °F 39.9 °F 71% 29.86 in 10.0 mi Calm Calm - N/A   Clear
11:54 PM 44.1 °F 41.0 °F 89% 29.88 in 10.0 mi Calm Calm - N/A   Clear